www.pogodaiklimat.ru

Погода и климат >> Архив погоды >> Катар >> Доха


АРХИВ ПОГОДЫ в Дохе

Время (UTC), дата Ветер
(напр.,м/с)
 
Видим.   Явления Облачность Т
(С)
Тd
(С)
f
(%)
Тe
(С)
Тes
(С)
Комфортность P
(гПа)
Po
(гПа)
Тmin
(С)
Tmax
(С)
R
(мм)
R24
(мм)
S
(см)
03 15.04 ЮЗ 7 20 км н/о +23.0 +7.6 37 +24 +24 комфорт 1012.8 1011.5
06 15.04 З 7 20 км н/о +29.0 -0.1 15 +26 +26 жарко 1014.6 1013.3 +22.6
09 15.04 З 6 20 км н/о +32.8 -11.3 5 +28 +28 жарко 1013.6 1012.3
12 15.04 З 9 20 км н/о +33.4 -27.1 1 +28 +28 жарко 1012.1 1010.8
15 15.04 С 4 20 км н/о +28.3 +8.9 30 +28 +28 жарко 1012.5 1011.2
18 15.04 ЮВ 2 20 км н/о +25.4 +13.9 49 +28 +28 жарко 1013.3 1012.0 +33.7
21 15.04 Ю 4 19 км н/о +25.3 +11.2 41 +27 +27 жарко 1012.9 1011.6
00 16.04 Ю 3 15 км н/о +23.4 +7.6 36 +24 +24 комфорт 1011.7 1010.4
06 16.04 Ю 4 20 км н/о +31.0 -8.3 7 +27 +27 жарко 1013.8 1012.5 +22.7
09 16.04 ЮЗ 6 20 км н/о +34.6 -24.8 1 +29 +29 жарко 1012.4 1011.1
12 16.04 СВ 5 20 км н/о +34.5 +3.4 14 +32 +32 жарко 1010.4 1009.1
15 16.04 СВ 4 20 км н/о +29.3 +7.2 25 +28 +28 жарко 1011.3 1010.0
18 16.04 В 4 20 км н/о +27.1 +12.8 41 +29 +29 жарко 1012.2 1010.9 +36.7
21 16.04 ЮВ 2 20 км н/о +27.0 +8.0 30 +27 +27 жарко 1011.3 1010.0
00 17.04 Ю 3 20 км н/о +25.5 +9.3 36 +26 +26 жарко 1009.9 1008.6
03 17.04 Ю 6 20 км н/о +24.4 +14.9 55 +27 +27 жарко 1011.1 1009.8
06 17.04 Ю 8 19 км н/о +31.3 -3.6 10 +28 +28 жарко 1012.1 1010.8 +24.3
09 17.04 Ю 6 20 км н/о +37.4 -23.9 1 +32 +32 жарко 1011.2 1009.9
12 17.04 В 11 20 км н/о +34.6 +3.2 14 +32 +32 жарко 1009.6 1008.3
15 17.04 В 6 20 км н/о +28.4 +16.5 48 +32 +32 душно 1009.8 1008.5
18 17.04 В 4 20 км н/о +26.9 +17.9 58 +31 +31 душно 1010.9 1009.6 +38.2
21 17.04 ЮВ 5 20 км н/о +27.4 +13.8 43 +29 +29 жарко 1010.5 1009.2
00 18.04 Ю 3 20 км н/о +26.1 +14.7 49 +29 +29 жарко 1009.5 1008.2
03 18.04 Ю 3 20 км н/о +26.2 +13.9 47 +28 +28 жарко 1011.1 1009.8
06 18.04 ЮВ 7 16 км н/о +32.4 +5.9 19 +30 +30 жарко 1012.8 1011.5 +25.2
09 18.04 В 12 20 км н/о +34.8 +1.3 12 +31 +31 жарко 1011.5 1010.2
12 18.04 В 11 20 км н/о +29.5 +15.6 43 +32 +32 душно 1009.9 1008.6
15 18.04 В 9 20 км н/о +28.2 +15.1 45 +31 +31 душно 1008.9 1007.6
18 18.04 В 5 20 км н/о +27.6 +16.5 51 +31 +31 душно 1010.0 1008.7 +35.8
21 18.04 В 7 20 км н/о +27.4 +15.4 48 +30 +30 жарко 1009.2 1007.9
00 19.04 ЮВ 5 20 км н/о +27.0 +14.8 47 +30 +30 душно 1008.5 1007.2
03 21.04 СЗ 10 20 км н/о +26.2 +15.8 53 +29 +29 жарко 1007.0 1005.7

 

Местоположение метеостанции Доха (Катар): широта 25.25 долгота 51.57 высота над уровнем моря 10 м.

В архиве по умолчанию представлена погода в Дохе за последнюю неделю. Архивные данные за месяц целиком и за предыдущие месяцы, начиная с января 2011 года, Вы можете получить, выбрав интересующий диапазон дат из раскрывающегося списка и нажав кнопку "Ввод!".


*Определитесь, кто Вы:
робот инопланетянин человек

Внимание! Время в таблицах - всемирное. Для получения местного времени необходимо прибавить поправку, которая равна 4 ч.

Смотрите также архив погоды в соседних городах и на ближайших метеорологических станциях:

Погода в Аэропорту Хамад (Катар) (5 км)
Погода в Доха порту (Катар) (26 км)
Погода в Духане (Катар) (84 км)
Погода в Абу Самба (Катар) (94 км)
Погода в Бахрейне (Бахрейн) (146 км)
Погода в Дахране (Саудовская Аравия) (180 км)
Погода в Эль-Хуфуфе (Саудовская Аравия) (210 км)
Погода в Эд-Даммаме (Саудовская Аравия) (220 км)
Погода на Острове Киш (Иран) (278 км)
Погода в Бендер-Дейере (Иран) (289 км)

Пояснения к столбцам:

Ветер - указаны скорость ветра в м/с - средняя за 10 мин, порывы в срок и между сроками (в фигурных скобках) и направление, откуда дует ветер: С - северный, СВ - северо-восточный, В - восточный, ЮВ - юго-восточный, Ю - южный, ЮЗ - юго-западный, З - западный, СЗ - северо-западный.
Видимость - горизонтальная дальность видимости в метрах или километрах. При видимости от 1 до 10 км при отсутствии осадков обычно наблюдается дымка, при ухудшении видимости до 1 км и менее - туман. В сухую погоду видимость может ухудшаться дымом, пылью или мглою.
Явления - указаны атмосферные явления, наблюдавшиеся в срок или в последний час перед сроком; фигурными скобками обозначены явления, наблюдавшиеся между сроками (за 1-3 часа до срока); квадратными скобками обозначены град или гололедные отложения с указанием их диаметра в мм.
Облачность - указаны через наклонную черту общая и нижняя облачность в баллах и высота нижней границы облаков в метрах; квадратными скобками обозначены формы облаков: Ci - перистые, Cs - перисто-слоистые, Cc - перисто-кучевые, Ac - высококучевые, As - высокослоистые, Sc - слоисто-кучевые, Ns - слоисто-дождевые, Cu - кучевые, Cb - кучево-дождевые. Подробнее классификацию облаков см. в Атласе облаков (PDF).
T - Температура воздуха - температура, измеренная на высоте 2 м над землей.
Td - Температура точки росы - температура, при понижении до которой содержащийся в воздухе водяной пар достигнет насыщения.
f - Относительная влажность воздуха - влажноcть воздуха, измеренная на высоте 2 м над землей.
Te - Эффективная температура - температура, которую ощущает одетый по сезону человек в тени. Характеристика душности погоды. При расчете учитывается влияние влажности воздуха и скорости ветра на теплоощущения человека.
Tes - Эффективная температура на солнце - температура, которую ощущает человек, с поправкой на солнечный нагрев. Характеристика знойности погоды. Зависит от высоты солнца над горизонтом, облачности и скорости ветра. Ночью, в пасмурную погоду, а также при ветре 12 м/с и более поправка равна нулю.
P - Атмосферное давление - приведенное к уровню моря атмосферное давление.
Po - Атмосферное давление - измеренное на уровне метеостанции атмосферное давление.
Tmin - Минимальная температура - минимум температуры воздуха на высоте 2 м над землей.
Tmax - Максимальная температура - максимум температуры воздуха на высоте 2 м над землей.
R - Количество осадков - Количество выпавших осадков за период времени, мм. При наведении курсора мыши на число - период времени, за который выпало указанное количество осадков.
R24 - Количество осадков - Количество выпавших осадков за 24 часа, мм.
S - Снежный покров - Высота снежного покрова, см. При наведении курсора мыши на число - состояние снежного покрова и степень покрытия местности в баллах.